User: anonymous   Login
Location: Newark
(45.4422°N, 16.2769°E)
Time: 10:42:37
(UTC+00:00)
Language:

SR - Orbit

View from above orbital plane
View from above orbital plane
View from above satellite
View from above satellite

Ground track
Ground track

The orbit data is extracted from the following two-line orbital elements,

1    46U 60007B   19345.79139575 -.00000042 +00000-0 +15097-4 0  9994
2    46 066.6890 196.2852 0217406 271.7529 085.8691 14.49262064111775
Epoch (UTC): 11 December 2019 18:59:36
Eccentricity: 0.0217406
inclination: 66.6890°
perigee height: 573 km
apogee height: 882 km
right ascension of ascending node: 196.2852°
argument of perigee: 271.7529°
revolutions per day: 14.49262064
mean anomaly at epoch: 85.8691°
orbit number at epoch: 11177

The dashed part of the orbit path shows where the satellite is in the earth's shadow,  

DLR